Simultaneous Nadir Overpasses (SNOs) Predictions

Prediction of SNOs between METOP-B and NOAA-19 Satellite Orbit:

Table of predicted SNOs for the next 14.0 days since TLE Epoch: 4/15/2016
Index Date (METOP-B) Time (METOP-B) Lat,Lon (METOP-B) SZA (METOP-B ) Date (NOAA-19) Time (NOAA-19) Lat,Lon (NOAA-19) SZA (NOAA-19 ) Distance(km) Time Diff (sec)
1 04/23/2016 05:24:11 -75.98, -81.13 116.78 04/23/2016 05:23:05 -75.98, -81.19 116.78 1.66 66
2 04/23/2016 06:14:51 75.96, 86.12 63.19 04/23/2016 06:14:01 75.94, 86.20 63.18 2.71 50
3 04/23/2016 07:05:33 -75.96,-106.54 116.82 04/23/2016 07:05:07 -75.97,-106.67 116.81 3.75 26
4 04/23/2016 07:56:13 75.94, 60.72 63.15 04/23/2016 07:56:03 75.94, 60.71 63.15 0.37 10
5 04/23/2016 08:46:56 -75.90,-132.09 116.91 04/23/2016 08:47:08 -75.92,-132.00 116.89 3.34 12
6 04/23/2016 09:37:35 75.92, 35.31 63.11 04/23/2016 09:38:05 75.93, 35.22 63.12 2.86 30
7 04/23/2016 10:28:18 -75.88,-157.49 116.95 04/23/2016 10:29:10 -75.91,-157.49 116.92 3.73 52
8 04/23/2016 11:18:57 75.90, 9.91 63.06 04/23/2016 11:20:06 75.88, 9.89 63.04 2.30 69




NCC Satellite Simultaneous Nadir Overpasses (SNOs) Prediction Service
